Location: Newark
(45.4422°N, 16.2769°E)
Time: 04:32:15
(UTC+00:00)

Tiros 1 despin weight - Pass Details

Date: 18 December 2019
Orbit: 594 x 642 km, 48.2° (Epoch: 24 January)

Event Time Altitude Azimuth Distance (km) Brightness Sun altitude
Rises 05:21:22 0° 288° (WNW) 2,883 - -11.4°
Reaches altitude 10° 05:23:42 10° 289° (WNW) 1,968 - -11.1°
Exits shadow 05:24:32 15° 289° (WNW) 1,649 ? -10.9°
Maximum altitude 05:28:14 88° 17° (NNE) 610 ? -10.3°
Drops below altitude 10° 05:32:41 10° 109° (ESE) 1,936 ? -9.6°
Sets 05:34:57 0° 109° (ESE) 2,831 ? -9.2°
